LGKR

Details ICAO LGKR (CFU)
Name IOANNIS KAPODISTRIAS INTL
Region Greece
Timezone Europe/Athens (UTC+3.0)
Plans Departing 1276
Arriving 1968
Stats Elevation 0 ft / 0 m (AMSL)
Location 39.602300° 19.912000°
Runways 1
Magnetic Variation 4.273° E
Sunrise 2019-09-15 04:22:18 UTC / 2019-09-15 07:22:18 Local
Sunset 2019-09-15 16:52:03 UTC / 2019-09-15 19:52:03 Local
Advertisement - Login to hide

Runways

ID Width Length Bearing (true/mag) Surface Threshold Overrun Markings Lighting
17 148 ft / 45 m 7,604 ft / 2,318 m 168.78° / 164.51° ASPHALT 1,342 ft / 409 m 0 ft / 0 m PREC-APP EDGE THRESHOLD ALSF-I
35 148 ft / 45 m 7,604 ft / 2,318 m 348.79° / 344.51° ASPHALT 0 ft / 0 m 0 ft / 0 m PREC-APP EDGE THRESHOLD SALS REIL-OMNI

Map

Weather


0- 5 10 15 20 25 30 35+ Temperature / °C

Clouds and Precipitation
Forecast for 2019-09-15 18:00 UTC. Updated 5 hours ago

Ground ~20,000 ft ~40,000 ft Winds

METAR

LGKR 152020Z 26002KT CAVOK 24/18 Q1019 NOSIG

TAF

TAF LGKR 151700Z 1518/1618 VRB05KT 9999 FEW025 BECMG 1610/1612 28015KT

Frequencies

Recorded 126.35 MHz ATIS
Tower 120.85 MHz KERKIRA TWR
Ground 121.70 MHz KERKIRA GND
Approach 122.10 MHz KERKIRA APP
Approach 122.35 MHz KERKIRA APP
Clearance 120.85 MHz KERKIRA CLD
Warning: Do not use this data for real-world aviation or navigation. No guarantee of current accuracy is given.